Regional Weather Roundup
Issued by NWS

Home | Current Version | Previous Version | Text Only | Print | Product List | Glossary Off
Versions: 1 2 3 4 5 6 7 8 9 10 11 12 13 14 15 16 17 18 19 20 21 22 23 24 25 26 27 28 29 30 31 32 33 34 35 36 37 38 39 40 41 42 43 44 45 46 47 48 49 50

000
ASUS45 KPSR 151800
RWRAZ

PRELIMINARY ARIZONA REGIONAL HOURLY WEATHER ROUNDUP
NATIONAL WEATHER SERVICE PHOENIX AZ
1100 AM MST TUE APR 15 2014

NOTE: FAIR INDICATES FEW OR NO CLOUDS BELOW 12,000 FEET WITH NO
SIGNIFICANT WEATHER AND/OR OBSTRUCTIONS TO VISIBILITY.

AZZ001>003-036-151900-
NORTHWEST ARIZONA

CITY           SKY/WX    TMP DP  RH WIND       PRES   REMARKS
KINGMAN        MOSUNNY   72   0   6 VRB6      30.03S
6HR MIN TEMP:  43; 6HR MAX TEMP:  72;

$$

AZZ004>008-015-016-018-151900-
NORTH CENTRAL ARIZONA

CITY           SKY/WX    TMP DP  RH WIND       PRES   REMARKS
GRAND CANYON   MOSUNNY   61  -5   7 W5        30.14F
6HR MIN TEMP:  16; 6HR MAX TEMP:  61;

WILLIAMS       MOSUNNY   61  -4   7 W9        30.21S
PRESCOTT       PTSUNNY   64   6  10 CALM      30.10F
6HR MIN TEMP:  33; 6HR MAX TEMP:  65;

FLAGSTAFF      MOSUNNY   57  -4   8 VRB3      30.15F
6HR MIN TEMP:  17; 6HR MAX TEMP:  59;

PAYSON         MOSUNNY   63  12  14 CALM      30.13F
PAGE           MOSUNNY   58  10  15 VRB5      30.08F
6HR MIN TEMP:  40; 6HR MAX TEMP:  58;

$$

AZZ009>014-017-151900-
NORTHEAST ARIZONA

CITY           SKY/WX    TMP DP  RH WIND       PRES   REMARKS
WINSLOW        NOT AVBL
SAINT JOHNS    SUNNY     63   5  10 VRB6      30.10F
6HR MIN TEMP:  26; 6HR MAX TEMP:  63;

WINDOW ROCK    SUNNY     59   2  10 MISG      30.14F
6HR MIN TEMP:  18; 6HR MAX TEMP:  59;

SHOW LOW       SUNNY     61   9  12 S9G16     30.16F
$$

AZZ023-151900-
GREATER PHOENIX AREA

CITY           SKY/WX    TMP DP  RH WIND       PRES   REMARKS
PHOENIX        PTSUNNY   81  15   8 E9        29.93F
6HR MIN TEMP:  60; 6HR MAX TEMP:  81;

GLENDALE       PTSUNNY   79  19  11 CALM      29.96F
DEER VALLEY    MOSUNNY   78   8   7 SE3       29.95F
6HR MIN TEMP:  58; 6HR MAX TEMP:  79;

SCOTTSDALE     MOSUNNY   78  13   8 VRB3      29.97S
6HR MIN TEMP:  58; 6HR MAX TEMP:  79;

MESA-FALCON    PTSUNNY   77  18  10 N9        29.96S
MESA-GATEWAY   MOSUNNY   79  18  10 SE7       29.97S
CHANDLER       PTSUNNY   79  19  11 NE7       29.95F
$$

AZZ027-028-151900-
SOUTHWEST MARICOPA COUNTY AND PINAL COUNTY

CITY           SKY/WX    TMP DP  RH WIND       PRES   REMARKS
CASA GRANDE    SUNNY     79  14   8 NE5       29.95F
6HR MIN TEMP:  50; 6HR MAX TEMP:  79;

GILA BEND      PTCLDY    82  16   8 E10       29.92F
$$

AZZ503-504-507>509-151900-
SOUTHEAST ARIZONA

CITY           SKY/WX    TMP DP  RH WIND       PRES   REMARKS
TUCSON         SUNNY     80  12   7 E12G20    29.98F
6HR MIN TEMP:  51; 6HR MAX TEMP:  81;

DAVIS-MONTHAN  SUNNY     80  14   8 E13       29.96S
6HR MIN TEMP:  53; 6HR MAX TEMP:  80;

RYAN FIELD       N/A     79  18  10 SE12      29.97F
NOGALES        SUNNY     78  15   9 CALM      30.01S
6HR MIN TEMP:  43; 6HR MAX TEMP:  78;

SIERRA VISTA   MOSUNNY   70  16  12 E12       30.08F
SAFFORD        SUNNY     68  15  13 SE14      30.09F
6HR MIN TEMP:  47; 6HR MAX TEMP:  69;

$$

AZZ020-021-025-026-031-151900-
SOUTHWEST ARIZONA

CITY           SKY/WX    TMP DP  RH WIND       PRES   REMARKS
YUMA           MOSUNNY   86  11   6 N7        29.90F
6HR MIN TEMP:  60; 6HR MAX TEMP:  86;

$$

CAZ031-033-041-043-047-048-061-151900-
SOUTHERN CALIFORNIA

CITY           SKY/WX    TMP DP  RH WIND       PRES   REMARKS
DOWNTOWN L.A.  SUNNY     67  53  61 CALM      29.97R
6HR MIN TEMP:  55; 6HR MAX TEMP:  68;

L.A. AIRPORT   PTSUNNY   58  51  78 W8        30.00S FOG
6HR MIN TEMP:  56; 6HR MAX TEMP:  60;

SAN DIEGO      PTSUNNY   64  53  67 NW8       29.99R
6HR MIN TEMP:  60; 6HR MAX TEMP:  65;

BURBANK        SUNNY     73  47  39 SE7       29.96S
6HR MIN TEMP:  56; 6HR MAX TEMP:  75;

ONTARIO        MOSUNNY   77  36  22 W6        29.96S
6HR MIN TEMP:  57; 6HR MAX TEMP:  77;

RIVERSIDE      SUNNY     78  34  20 CALM      29.95S
6HR MIN TEMP:  54; 6HR MAX TEMP:  78;

PALM SPRINGS   SUNNY     85  21   9 VRB3      29.91F
6HR MIN TEMP:  64; 6HR MAX TEMP:  86;

EL CENTRO NAS  MOSUNNY   84  23  10 S5        29.90S
6HR MIN TEMP:  53; 6HR MAX TEMP:  84;

IMPERIAL       SUNNY     83  25  12 VRB3      29.89S
6HR MIN TEMP:  53; 6HR MAX TEMP:  83;

BLYTHE         MOSUNNY   79   9   7 CALM      29.92F
6HR MIN TEMP:  54; 6HR MAX TEMP:  81;

$$

NVZ020-UTZ003-151900-
SOUTHERN NEVADA-UTAH

CITY           SKY/WX    TMP DP  RH WIND       PRES   REMARKS
LAS VEGAS      NOT AVBL
SALT LAKE CITY MOSUNNY   62  12  14 S20       29.95F
6HR MIN TEMP:  42; 6HR MAX TEMP:  62;

$$

NMZ009-TXZ055-151900-
NEW MEXICO-WEST TEXAS

CITY           SKY/WX    TMP DP  RH WIND       PRES   REMARKS
ALBUQUERQUE    MOSUNNY   54  13  19 SW7       30.17F
6HR MIN TEMP:  33; 6HR MAX TEMP:  54;

EL PASO        SUNNY     58  11  15 SE9       30.21F
6HR MIN TEMP:  38; 6HR MAX TEMP:  58;

$$


........................KEY........................
SKY/WX - SKY CONDITION/WEATHER
TMP    - TEMPERATURE IN FAHRENHEIT
DP     - DEW POINT IN FAHRENHEIT
RH     - RELATIVE HUMIDITY IN PERCENT
WIND   - DIRECTION AND SPEED IN MILES PER HOUR (MPH)
VRB    - VARIABLE WIND DIRECTION
PRES   - MEAN SEA LEVEL PRESSURE IN INCHES OF MERCURY
         F - FALLING PRESSURE   R - RISING PRESSURE
         S - STEADY PRESSURE
VSB    - VISIBILITY IN MILES
HX     - HEAT INDEX IN FAHRENHEIT
WCI    - WIND CHILL INDEX IN FAHRENHEIT
TC     - TEMPERATURE IN CELSIUS WHICH IS ALSO KNOWN AS
         TEMPERATURE IN CENTIGRADE
AFB    - AIR FORCE BASE
         LUKE AFB IS LUKE AIR FORCE BASE
         DAVIS-MONTHAN IS DAVIS-MONTHAN AIR FORCE BASE
NAS    - NAVAL AIR STATION
         EL CENTRO NAS IS EL CENTRO NAVAL AIR STATION
N/A    - NOT AVAILABLE



USA.gov is the U.S. government's official web portal to all federal, state and local government web resources and services.